�p�l������,�ʖ���,����,����,�J��
�͐쐅�ʏ��,����@�{���V,2024/4/1 0:00,-2.7,0
�͐쐅�ʏ��,����@�{���V,2024/4/1 0:10,-2.7,0
�͐쐅�ʏ��,����@�{���V,2024/4/1 0:20,-2.7,0
�͐쐅�ʏ��,����@�{���V,2024/4/1 0:30,-2.7,0
�͐쐅�ʏ��,����@�{���V,2024/4/1 0:40,-2.7,0
�͐쐅�ʏ��,����@�{���V,2024/4/1 0:50,-2.69,0
�͐쐅�ʏ��,����@�{���V,2024/4/1 1:00,-2.69,0
�͐쐅�ʏ��,����@�{���V,2024/4/1 1:10,-2.7,0
�͐쐅�ʏ��,����@�{���V,2024/4/1 1:20,-2.7,0
�͐쐅�ʏ��,����@�{���V,2024/4/1 1:30,-2.7,0
�͐쐅�ʏ��,����@�{���V,2024/4/1 1:40,-2.7,0
�͐쐅�ʏ��,����@�{���V,2024/4/1 1:50,-2.69,0
�͐쐅�ʏ��,����@�{���V,2024/4/1 2:00,-2.69,0
�͐쐅�ʏ��,����@�{���V,2024/4/1 2:10,-2.7,0
�͐쐅�ʏ��,����@�{���V,2024/4/1 2:20,-2.7,0
�͐쐅�ʏ��,����@�{���V,2024/4/1 2:30,-2.7,0
�͐쐅�ʏ��,����@�{���V,2024/4/1 2:40,-2.69,0
�͐쐅�ʏ��,����@�{���V,2024/4/1 2:50,-2.69,0
�͐쐅�ʏ��,����@�{���V,2024/4/1 3:00,-2.7,0
�͐쐅�ʏ��,����@�{���V,2024/4/1 3:10,-2.69,0
�͐쐅�ʏ��,����@�{���V,2024/4/1 3:20,-2.7,0
�͐쐅�ʏ��,����@�{���V,2024/4/1 3:30,-2.7,0
�͐쐅�ʏ��,����@�{���V,2024/4/1 3:40,-2.7,0
�͐쐅�ʏ��,����@�{���V,2024/4/1 3:50,-2.7,0
�͐쐅�ʏ��,����@�{���V,2024/4/1 4:00,-2.7,0
�͐쐅�ʏ��,����@�{���V,2024/4/1 4:10,-2.7,0
�͐쐅�ʏ��,����@�{���V,2024/4/1 4:20,-2.7,0
�͐쐅�ʏ��,����@�{���V,2024/4/1 4:30,-2.7,0
�͐쐅�ʏ��,����@�{���V,2024/4/1 4:40,-2.7,0
�͐쐅�ʏ��,����@�{���V,2024/4/1 4:50,-2.69,0
�͐쐅�ʏ��,����@�{���V,2024/4/1 5:00,-2.7,0
�͐쐅�ʏ��,����@�{���V,2024/4/1 5:10,-2.7,0
�͐쐅�ʏ��,����@�{���V,2024/4/1 5:20,-2.7,0
�͐쐅�ʏ��,����@�{���V,2024/4/1 5:30,-2.7,0
�͐쐅�ʏ��,����@�{���V,2024/4/1 5:40,-2.7,0
�͐쐅�ʏ��,����@�{���V,2024/4/1 5:50,-2.7,0
�͐쐅�ʏ��,����@�{���V,2024/4/1 6:00,-2.69,0
�͐쐅�ʏ��,����@�{���V,2024/4/1 6:10,-2.69,0
�͐쐅�ʏ��,����@�{���V,2024/4/1 6:20,-2.7,0
�͐쐅�ʏ��,����@�{���V,2024/4/1 6:30,-2.69,0
�͐쐅�ʏ��,����@�{���V,2024/4/1 6:40,-2.69,0
�͐쐅�ʏ��,����@�{���V,2024/4/1 6:50,-2.69,0
�͐쐅�ʏ��,����@�{���V,2024/4/1 7:00,-2.69,0
�͐쐅�ʏ��,����@�{���V,2024/4/1 7:10,-2.7,0
�͐쐅�ʏ��,����@�{���V,2024/4/1 7:20,-2.69,0
�͐쐅�ʏ��,����@�{���V,2024/4/1 7:30,-2.69,0
�͐쐅�ʏ��,����@�{���V,2024/4/1 7:40,-2.69,0
�͐쐅�ʏ��,����@�{���V,2024/4/1 7:50,-2.69,0
�͐쐅�ʏ��,����@�{���V,2024/4/1 8:00,-2.7,0
�͐쐅�ʏ��,����@�{���V,2024/4/1 8:10,-2.69,0
�͐쐅�ʏ��,����@�{���V,2024/4/1 8:20,-2.69,0
�͐쐅�ʏ��,����@�{���V,2024/4/1 8:30,-2.69,0
�͐쐅�ʏ��,����@�{���V,2024/4/1 8:40,-2.69,0
�͐쐅�ʏ��,����@�{���V,2024/4/1 8:50,-2.69,0
�͐쐅�ʏ��,����@�{���V,2024/4/1 9:00,-2.69,0
�͐쐅�ʏ��,����@�{���V,2024/4/1 9:10,-2.69,0
�͐쐅�ʏ��,����@�{���V,2024/4/1 9:20,-2.69,0
�͐쐅�ʏ��,����@�{���V,2024/4/1 9:30,-2.7,0
�͐쐅�ʏ��,����@�{���V,2024/4/1 9:40,-2.69,0
�͐쐅�ʏ��,����@�{���V,2024/4/1 9:50,-2.7,0
�͐쐅�ʏ��,����@�{���V,2024/4/1 10:00,-2.7,0
�͐쐅�ʏ��,����@�{���V,2024/4/1 10:10,-2.69,0
�͐쐅�ʏ��,����@�{���V,2024/4/1 10:20,-2.7,0
�͐쐅�ʏ��,����@�{���V,2024/4/1 10:30,-2.7,0
�͐쐅�ʏ��,����@�{���V,2024/4/1 10:40,-2.7,0
�͐쐅�ʏ��,����@�{���V,2024/4/1 10:50,-2.69,0
�͐쐅�ʏ��,����@�{���V,2024/4/1 11:00,-2.69,0
�͐쐅�ʏ��,����@�{���V,2024/4/1 11:10,-2.69,0
�͐쐅�ʏ��,����@�{���V,2024/4/1 11:20,-2.69,0
�͐쐅�ʏ��,����@�{���V,2024/4/1 11:30,-2.7,0
�͐쐅�ʏ��,����@�{���V,2024/4/1 11:40,-2.69,0
�͐쐅�ʏ��,����@�{���V,2024/4/1 11:50,-2.69,0
�͐쐅�ʏ��,����@�{���V,2024/4/1 12:00,-2.69,0
�͐쐅�ʏ��,����@�{���V,2024/4/1 12:10,-2.69,0
�͐쐅�ʏ��,����@�{���V,2024/4/1 12:20,-2.7,0
�͐쐅�ʏ��,����@�{���V,2024/4/1 12:30,-2.69,0
�͐쐅�ʏ��,����@�{���V,2024/4/1 12:40,-2.7,0
�͐쐅�ʏ��,����@�{���V,2024/4/1 12:50,-2.7,0
�͐쐅�ʏ��,����@�{���V,2024/4/1 13:00,-2.69,0
�͐쐅�ʏ��,����@�{���V,2024/4/1 13:10,-2.7,0
�͐쐅�ʏ��,����@�{���V,2024/4/1 13:20,-2.7,0
�͐쐅�ʏ��,����@�{���V,2024/4/1 13:30,-2.69,0
�͐쐅�ʏ��,����@�{���V,2024/4/1 13:40,-2.7,0
�͐쐅�ʏ��,����@�{���V,2024/4/1 13:50,-2.69,0
�͐쐅�ʏ��,����@�{���V,2024/4/1 14:00,-2.7,0
�͐쐅�ʏ��,����@�{���V,2024/4/1 14:10,-2.7,0
�͐쐅�ʏ��,����@�{���V,2024/4/1 14:20,-2.7,0
�͐쐅�ʏ��,����@�{���V,2024/4/1 14:30,-2.7,0
�͐쐅�ʏ��,����@�{���V,2024/4/1 14:40,-2.7,0
�͐쐅�ʏ��,����@�{���V,2024/4/1 14:50,-2.7,0
�͐쐅�ʏ��,����@�{���V,2024/4/1 15:00,-2.69,0
�͐쐅�ʏ��,����@�{���V,2024/4/1 15:10,-2.7,0
�͐쐅�ʏ��,����@�{���V,2024/4/1 15:20,-2.69,0
�͐쐅�ʏ��,����@�{���V,2024/4/1 15:30,-2.69,0
�͐쐅�ʏ��,����@�{���V,2024/4/1 15:40,-2.71,0
�͐쐅�ʏ��,����@�{���V,2024/4/1 15:50,-2.7,0
�͐쐅�ʏ��,����@�{���V,2024/4/1 16:00,-2.7,0
�͐쐅�ʏ��,����@�{���V,2024/4/1 16:10,-2.7,0
�͐쐅�ʏ��,����@�{���V,2024/4/1 16:20,-2.7,0
�͐쐅�ʏ��,����@�{���V,2024/4/1 16:30,-2.69,0
�͐쐅�ʏ��,����@�{���V,2024/4/1 16:40,-2.69,0
�͐쐅�ʏ��,����@�{���V,2024/4/1 16:50,-2.69,0
�͐쐅�ʏ��,����@�{���V,2024/4/1 17:00,-2.69,0
�͐쐅�ʏ��,����@�{���V,2024/4/1 17:10,-2.69,0
�͐쐅�ʏ��,����@�{���V,2024/4/1 17:20,-2.69,0
�͐쐅�ʏ��,����@�{���V,2024/4/1 17:30,-2.69,0
�͐쐅�ʏ��,����@�{���V,2024/4/1 17:40,-2.69,0
�͐쐅�ʏ��,����@�{���V,2024/4/1 17:50,-2.69,0
�͐쐅�ʏ��,����@�{���V,2024/4/1 18:00,-2.69,0
�͐쐅�ʏ��,����@�{���V,2024/4/1 18:10,-2.69,0
�͐쐅�ʏ��,����@�{���V,2024/4/1 18:20,-2.69,0
�͐쐅�ʏ��,����@�{���V,2024/4/1 18:30,-2.69,0
�͐쐅�ʏ��,����@�{���V,2024/4/1 18:40,-2.69,0
�͐쐅�ʏ��,����@�{���V,2024/4/1 18:50,-2.69,0
�͐쐅�ʏ��,����@�{���V,2024/4/1 19:00,-2.69,0
�͐쐅�ʏ��,����@�{���V,2024/4/1 19:10,-2.69,0
�͐쐅�ʏ��,����@�{���V,2024/4/1 19:20,-2.69,0
�͐쐅�ʏ��,����@�{���V,2024/4/1 19:30,-2.69,0
�͐쐅�ʏ��,����@�{���V,2024/4/1 19:40,-2.69,0
�͐쐅�ʏ��,����@�{���V,2024/4/1 19:50,-2.69,0
�͐쐅�ʏ��,����@�{���V,2024/4/1 20:00,-2.69,0
�͐쐅�ʏ��,����@�{���V,2024/4/1 20:10,-2.69,0
�͐쐅�ʏ��,����@�{���V,2024/4/1 20:20,-2.69,0
�͐쐅�ʏ��,����@�{���V,2024/4/1 20:30,-2.69,0
�͐쐅�ʏ��,����@�{���V,2024/4/1 20:40,-2.69,0
�͐쐅�ʏ��,����@�{���V,2024/4/1 20:50,-2.69,0
�͐쐅�ʏ��,����@�{���V,2024/4/1 21:00,-2.69,0
�͐쐅�ʏ��,����@�{���V,2024/4/1 21:10,-2.69,0
�͐쐅�ʏ��,����@�{���V,2024/4/1 21:20,-2.69,0
�͐쐅�ʏ��,����@�{���V,2024/4/1 21:30,-2.69,0
�͐쐅�ʏ��,����@�{���V,2024/4/1 21:40,-2.69,0
�͐쐅�ʏ��,����@�{���V,2024/4/1 21:50,-2.69,0
�͐쐅�ʏ��,����@�{���V,2024/4/1 22:00,-2.69,0
�͐쐅�ʏ��,����@�{���V,2024/4/1 22:10,-2.69,0
�͐쐅�ʏ��,����@�{���V,2024/4/1 22:20,-2.69,0
�͐쐅�ʏ��,����@�{���V,2024/4/1 22:30,-2.69,0
�͐쐅�ʏ��,����@�{���V,2024/4/1 22:40,-2.69,0
�͐쐅�ʏ��,����@�{���V,2024/4/1 22:50,-2.69,0
�͐쐅�ʏ��,����@�{���V,2024/4/1 23:00,-2.69,0
�͐쐅�ʏ��,����@�{���V,2024/4/1 23:10,-2.69,0
�͐쐅�ʏ��,����@�{���V,2024/4/1 23:20,-2.69,0
�͐쐅�ʏ��,����@�{���V,2024/4/1 23:30,-2.69,0
�͐쐅�ʏ��,����@�{���V,2024/4/1 23:40,-2.69,0
�͐쐅�ʏ��,����@�{���V,2024/4/1 23:50,-2.69,0
�͐쐅�ʏ��,����@�{���V,2024/4/2 0:00,-2.69,0
�͐쐅�ʏ��,����@�{���V,2024/4/2 0:10,-2.69,0
�͐쐅�ʏ��,����@�{���V,2024/4/2 0:20,-2.69,0
�͐쐅�ʏ��,����@�{���V,2024/4/2 0:30,-2.69,0
�͐쐅�ʏ��,����@�{���V,2024/4/2 0:40,-2.69,0
�͐쐅�ʏ��,����@�{���V,2024/4/2 0:50,-2.69,0
�͐쐅�ʏ��,����@�{���V,2024/4/2 1:00,-2.69,0
�͐쐅�ʏ��,����@�{���V,2024/4/2 1:10,-2.69,0
�͐쐅�ʏ��,����@�{���V,2024/4/2 1:20,-2.69,0
�͐쐅�ʏ��,����@�{���V,2024/4/2 1:30,-2.69,0
�͐쐅�ʏ��,����@�{���V,2024/4/2 1:40,-2.69,0
�͐쐅�ʏ��,����@�{���V,2024/4/2 1:50,-2.69,0
�͐쐅�ʏ��,����@�{���V,2024/4/2 2:00,-2.69,0
�͐쐅�ʏ��,����@�{���V,2024/4/2 2:10,-2.69,0
�͐쐅�ʏ��,����@�{���V,2024/4/2 2:20,-2.69,0
�͐쐅�ʏ��,����@�{���V,2024/4/2 2:30,-2.69,0
�͐쐅�ʏ��,����@�{���V,2024/4/2 2:40,-2.69,0
�͐쐅�ʏ��,����@�{���V,2024/4/2 2:50,-2.69,0
�͐쐅�ʏ��,����@�{���V,2024/4/2 3:00,-2.69,0
�͐쐅�ʏ��,����@�{���V,2024/4/2 3:10,-2.69,0
�͐쐅�ʏ��,����@�{���V,2024/4/2 3:20,-2.69,0
�͐쐅�ʏ��,����@�{���V,2024/4/2 3:30,-2.69,0
�͐쐅�ʏ��,����@�{���V,2024/4/2 3:40,-2.69,0
�͐쐅�ʏ��,����@�{���V,2024/4/2 3:50,-2.69,0
�͐쐅�ʏ��,����@�{���V,2024/4/2 4:00,-2.69,0
�͐쐅�ʏ��,����@�{���V,2024/4/2 4:10,-2.69,0
�͐쐅�ʏ��,����@�{���V,2024/4/2 4:20,-2.69,0
�͐쐅�ʏ��,����@�{���V,2024/4/2 4:30,-2.7,0
�͐쐅�ʏ��,����@�{���V,2024/4/2 4:40,-2.69,0
�͐쐅�ʏ��,����@�{���V,2024/4/2 4:50,-2.69,0
�͐쐅�ʏ��,����@�{���V,2024/4/2 5:00,-2.69,0
�͐쐅�ʏ��,����@�{���V,2024/4/2 5:10,-2.69,0
�͐쐅�ʏ��,����@�{���V,2024/4/2 5:20,-2.69,0
�͐쐅�ʏ��,����@�{���V,2024/4/2 5:30,-2.69,0
�͐쐅�ʏ��,����@�{���V,2024/4/2 5:40,-2.7,0
�͐쐅�ʏ��,����@�{���V,2024/4/2 5:50,-2.7,0
�͐쐅�ʏ��,����@�{���V,2024/4/2 6:00,-2.7,0
�͐쐅�ʏ��,����@�{���V,2024/4/2 6:10,-2.69,0
�͐쐅�ʏ��,����@�{���V,2024/4/2 6:20,-2.7,0
�͐쐅�ʏ��,����@�{���V,2024/4/2 6:30,-2.69,0
�͐쐅�ʏ��,����@�{���V,2024/4/2 6:40,-2.69,0
�͐쐅�ʏ��,����@�{���V,2024/4/2 6:50,-2.7,0
�͐쐅�ʏ��,����@�{���V,2024/4/2 7:00,-2.69,0
�͐쐅�ʏ��,����@�{���V,2024/4/2 7:10,-2.69,0
�͐쐅�ʏ��,����@�{���V,2024/4/2 7:20,-2.69,0
�͐쐅�ʏ��,����@�{���V,2024/4/2 7:30,-2.69,0
�͐쐅�ʏ��,����@�{���V,2024/4/2 7:40,-2.69,0
�͐쐅�ʏ��,����@�{���V,2024/4/2 7:50,-2.69,0
�͐쐅�ʏ��,����@�{���V,2024/4/2 8:00,-2.69,0
�͐쐅�ʏ��,����@�{���V,2024/4/2 8:10,-2.69,0
�͐쐅�ʏ��,����@�{���V,2024/4/2 8:20,-2.69,0
�͐쐅�ʏ��,����@�{���V,2024/4/2 8:30,-2.69,0
�͐쐅�ʏ��,����@�{���V,2024/4/2 8:40,-2.69,0
�͐쐅�ʏ��,����@�{���V,2024/4/2 8:50,-2.69,0
�͐쐅�ʏ��,����@�{���V,2024/4/2 9:00,-2.69,0
�͐쐅�ʏ��,����@�{���V,2024/4/2 9:10,-2.69,0
�͐쐅�ʏ��,����@�{���V,2024/4/2 9:20,-2.69,0
�͐쐅�ʏ��,����@�{���V,2024/4/2 9:30,-2.69,0
�͐쐅�ʏ��,����@�{���V,2024/4/2 9:40,-2.69,0
�͐쐅�ʏ��,����@�{���V,2024/4/2 9:50,-2.7,0
�͐쐅�ʏ��,����@�{���V,2024/4/2 10:00,-2.7,0
�͐쐅�ʏ��,����@�{���V,2024/4/2 10:10,-2.7,0
�͐쐅�ʏ��,����@�{���V,2024/4/2 10:20,-2.69,0
�͐쐅�ʏ��,����@�{���V,2024/4/2 10:30,-2.69,0
�͐쐅�ʏ��,����@�{���V,2024/4/2 10:40,-2.69,0
�͐쐅�ʏ��,����@�{���V,2024/4/2 10:50,-2.69,0
�͐쐅�ʏ��,����@�{���V,2024/4/2 11:00,-2.69,0
�͐쐅�ʏ��,����@�{���V,2024/4/2 11:10,-2.7,0
�͐쐅�ʏ��,����@�{���V,2024/4/2 11:20,-2.69,0
�͐쐅�ʏ��,����@�{���V,2024/4/2 11:30,-2.7,0
�͐쐅�ʏ��,����@�{���V,2024/4/2 11:40,-2.7,0
�͐쐅�ʏ��,����@�{���V,2024/4/2 11:50,-2.7,0
�͐쐅�ʏ��,����@�{���V,2024/4/2 12:00,-2.7,0
�͐쐅�ʏ��,����@�{���V,2024/4/2 12:10,-2.7,0
�͐쐅�ʏ��,����@�{���V,2024/4/2 12:20,-2.7,0
�͐쐅�ʏ��,����@�{���V,2024/4/2 12:30,-2.7,0
�͐쐅�ʏ��,����@�{���V,2024/4/2 12:40,-2.7,0
�͐쐅�ʏ��,����@�{���V,2024/4/2 12:50,-2.7,0
�͐쐅�ʏ��,����@�{���V,2024/4/2 13:00,-2.7,0
�͐쐅�ʏ��,����@�{���V,2024/4/2 13:10,-2.7,0
�͐쐅�ʏ��,����@�{���V,2024/4/2 13:20,-2.7,0
�͐쐅�ʏ��,����@�{���V,2024/4/2 13:30,-2.7,0
�͐쐅�ʏ��,����@�{���V,2024/4/2 13:40,-2.7,0
�͐쐅�ʏ��,����@�{���V,2024/4/2 13:50,-2.7,0
�͐쐅�ʏ��,����@�{���V,2024/4/2 14:00,-2.7,0
�͐쐅�ʏ��,����@�{���V,2024/4/2 14:10,-2.7,0
�͐쐅�ʏ��,����@�{���V,2024/4/2 14:20,-2.7,0
�͐쐅�ʏ��,����@�{���V,2024/4/2 14:30,-2.71,0
�͐쐅�ʏ��,����@�{���V,2024/4/2 14:40,-2.7,0
�͐쐅�ʏ��,����@�{���V,2024/4/2 14:50,-2.7,0
�͐쐅�ʏ��,����@�{���V,2024/4/2 15:00,-2.7,0
�͐쐅�ʏ��,����@�{���V,2024/4/2 15:10,-2.7,0
�͐쐅�ʏ��,����@�{���V,2024/4/2 15:20,-2.7,0
�͐쐅�ʏ��,����@�{���V,2024/4/2 15:30,-2.7,0
�͐쐅�ʏ��,����@�{���V,2024/4/2 15:40,-2.69,0
�͐쐅�ʏ��,����@�{���V,2024/4/2 15:50,-2.69,0
�͐쐅�ʏ��,����@�{���V,2024/4/2 16:00,-2.7,0
�͐쐅�ʏ��,����@�{���V,2024/4/2 16:10,-2.69,0
�͐쐅�ʏ��,����@�{���V,2024/4/2 16:20,-2.69,0
�͐쐅�ʏ��,����@�{���V,2024/4/2 16:30,-2.69,0
�͐쐅�ʏ��,����@�{���V,2024/4/2 16:40,-2.7,0
�͐쐅�ʏ��,����@�{���V,2024/4/2 16:50,-2.69,0
�͐쐅�ʏ��,����@�{���V,2024/4/2 17:00,-2.69,0
�͐쐅�ʏ��,����@�{���V,2024/4/2 17:10,-2.69,0
�͐쐅�ʏ��,����@�{���V,2024/4/2 17:20,-2.69,0
�͐쐅�ʏ��,����@�{���V,2024/4/2 17:30,-2.69,0
�͐쐅�ʏ��,����@�{���V,2024/4/2 17:40,-2.69,0
�͐쐅�ʏ��,����@�{���V,2024/4/2 17:50,-2.69,0
�͐쐅�ʏ��,����@�{���V,2024/4/2 18:00,-2.69,0
�͐쐅�ʏ��,����@�{���V,2024/4/2 18:10,-2.69,0
�͐쐅�ʏ��,����@�{���V,2024/4/2 18:20,-2.7,0
�͐쐅�ʏ��,����@�{���V,2024/4/2 18:30,-2.7,0
�͐쐅�ʏ��,����@�{���V,2024/4/2 18:40,-2.7,0
�͐쐅�ʏ��,����@�{���V,2024/4/2 18:50,-2.7,0
�͐쐅�ʏ��,����@�{���V,2024/4/2 19:00,-2.7,0
�͐쐅�ʏ��,����@�{���V,2024/4/2 19:10,-2.7,0
�͐쐅�ʏ��,����@�{���V,2024/4/2 19:20,-2.7,0
�͐쐅�ʏ��,����@�{���V,2024/4/2 19:30,-2.69,0
�͐쐅�ʏ��,����@�{���V,2024/4/2 19:40,-2.69,0
�͐쐅�ʏ��,����@�{���V,2024/4/2 19:50,-2.7,0
�͐쐅�ʏ��,����@�{���V,2024/4/2 20:00,-2.7,0
�͐쐅�ʏ��,����@�{���V,2024/4/2 20:10,-2.7,0
�͐쐅�ʏ��,����@�{���V,2024/4/2 20:20,-2.7,0
�͐쐅�ʏ��,����@�{���V,2024/4/2 20:30,-2.7,0
�͐쐅�ʏ��,����@�{���V,2024/4/2 20:40,-2.7,0
�͐쐅�ʏ��,����@�{���V,2024/4/2 20:50,-2.7,0
�͐쐅�ʏ��,����@�{���V,2024/4/2 21:00,-2.7,0
�͐쐅�ʏ��,����@�{���V,2024/4/2 21:10,-2.7,0
�͐쐅�ʏ��,����@�{���V,2024/4/2 21:20,-2.7,0
�͐쐅�ʏ��,����@�{���V,2024/4/2 21:30,-2.7,0
�͐쐅�ʏ��,����@�{���V,2024/4/2 21:40,-2.7,0
�͐쐅�ʏ��,����@�{���V,2024/4/2 21:50,-2.69,0
�͐쐅�ʏ��,����@�{���V,2024/4/2 22:00,-2.7,0
�͐쐅�ʏ��,����@�{���V,2024/4/2 22:10,-2.7,0
�͐쐅�ʏ��,����@�{���V,2024/4/2 22:20,-2.7,0
�͐쐅�ʏ��,����@�{���V,2024/4/2 22:30,-2.7,0
�͐쐅�ʏ��,����@�{���V,2024/4/2 22:40,-2.7,0
�͐쐅�ʏ��,����@�{���V,2024/4/2 22:50,-2.7,0
�͐쐅�ʏ��,����@�{���V,2024/4/2 23:00,-2.7,0
�͐쐅�ʏ��,����@�{���V,2024/4/2 23:10,-2.7,0
�͐쐅�ʏ��,����@�{���V,2024/4/2 23:20,-2.7,0
�͐쐅�ʏ��,����@�{���V,2024/4/2 23:30,-2.7,0
�͐쐅�ʏ��,����@�{���V,2024/4/2 23:40,-2.7,0
�͐쐅�ʏ��,����@�{���V,2024/4/2 23:50,-2.7,0
�͐쐅�ʏ��,����@�{���V,2024/4/3 0:00,-2.7,0
�͐쐅�ʏ��,����@�{���V,2024/4/3 0:10,-2.7,0
�͐쐅�ʏ��,����@�{���V,2024/4/3 0:20,-2.7,0
�͐쐅�ʏ��,����@�{���V,2024/4/3 0:30,-2.7,0
�͐쐅�ʏ��,����@�{���V,2024/4/3 0:40,-2.7,0
�͐쐅�ʏ��,����@�{���V,2024/4/3 0:50,-2.7,0
�͐쐅�ʏ��,����@�{���V,2024/4/3 1:00,-2.7,0
�͐쐅�ʏ��,����@�{���V,2024/4/3 1:10,-2.7,0
�͐쐅�ʏ��,����@�{���V,2024/4/3 1:20,-2.7,0
�͐쐅�ʏ��,����@�{���V,2024/4/3 1:30,-2.7,0
�͐쐅�ʏ��,����@�{���V,2024/4/3 1:40,-2.7,0
�͐쐅�ʏ��,����@�{���V,2024/4/3 1:50,-2.7,0
�͐쐅�ʏ��,����@�{���V,2024/4/3 2:00,-2.7,0
�͐쐅�ʏ��,����@�{���V,2024/4/3 2:10,-2.7,0
�͐쐅�ʏ��,����@�{���V,2024/4/3 2:20,-2.7,0
�͐쐅�ʏ��,����@�{���V,2024/4/3 2:30,-2.7,0
�͐쐅�ʏ��,����@�{���V,2024/4/3 2:40,-2.7,0
�͐쐅�ʏ��,����@�{���V,2024/4/3 2:50,-2.7,0
�͐쐅�ʏ��,����@�{���V,2024/4/3 3:00,-2.7,0
�͐쐅�ʏ��,����@�{���V,2024/4/3 3:10,-2.7,0
�͐쐅�ʏ��,����@�{���V,2024/4/3 3:20,-2.7,0
�͐쐅�ʏ��,����@�{���V,2024/4/3 3:30,-2.7,0
�͐쐅�ʏ��,����@�{���V,2024/4/3 3:40,-2.7,0
�͐쐅�ʏ��,����@�{���V,2024/4/3 3:50,-2.7,0
�͐쐅�ʏ��,����@�{���V,2024/4/3 4:00,-2.7,0
�͐쐅�ʏ��,����@�{���V,2024/4/3 4:10,-2.7,0
�͐쐅�ʏ��,����@�{���V,2024/4/3 4:20,-2.7,0
�͐쐅�ʏ��,����@�{���V,2024/4/3 4:30,-2.69,0
�͐쐅�ʏ��,����@�{���V,2024/4/3 4:40,-2.7,0
�͐쐅�ʏ��,����@�{���V,2024/4/3 4:50,-2.7,0
�͐쐅�ʏ��,����@�{���V,2024/4/3 5:00,-2.7,0
�͐쐅�ʏ��,����@�{���V,2024/4/3 5:10,-2.7,0
�͐쐅�ʏ��,����@�{���V,2024/4/3 5:20,-2.7,0
�͐쐅�ʏ��,����@�{���V,2024/4/3 5:30,-2.7,0
�͐쐅�ʏ��,����@�{���V,2024/4/3 5:40,-2.7,0
�͐쐅�ʏ��,����@�{���V,2024/4/3 5:50,-2.7,0
�͐쐅�ʏ��,����@�{���V,2024/4/3 6:00,-2.7,0
�͐쐅�ʏ��,����@�{���V,2024/4/3 6:10,-2.7,0
�͐쐅�ʏ��,����@�{���V,2024/4/3 6:20,-2.7,0
�͐쐅�ʏ��,����@�{���V,2024/4/3 6:30,-2.7,0
�͐쐅�ʏ��,����@�{���V,2024/4/3 6:40,-2.7,0
�͐쐅�ʏ��,����@�{���V,2024/4/3 6:50,-2.7,0
�͐쐅�ʏ��,����@�{���V,2024/4/3 7:00,-2.7,0
�͐쐅�ʏ��,����@�{���V,2024/4/3 7:10,-2.7,0
�͐쐅�ʏ��,����@�{���V,2024/4/3 7:20,-2.7,0
�͐쐅�ʏ��,����@�{���V,2024/4/3 7:30,-2.7,0
�͐쐅�ʏ��,����@�{���V,2024/4/3 7:40,-2.7,0
�͐쐅�ʏ��,����@�{���V,2024/4/3 7:50,-2.7,0
�͐쐅�ʏ��,����@�{���V,2024/4/3 8:00,-2.7,0
�͐쐅�ʏ��,����@�{���V,2024/4/3 8:10,-2.7,0
�͐쐅�ʏ��,����@�{���V,2024/4/3 8:20,-2.7,0
�͐쐅�ʏ��,����@�{���V,2024/4/3 8:30,-2.7,0
�͐쐅�ʏ��,����@�{���V,2024/4/3 8:40,-2.7,0
�͐쐅�ʏ��,����@�{���V,2024/4/3 8:50,-2.7,0
�͐쐅�ʏ��,����@�{���V,2024/4/3 9:00,-2.7,0
�͐쐅�ʏ��,����@�{���V,2024/4/3 9:10,-2.7,0
�͐쐅�ʏ��,����@�{���V,2024/4/3 9:20,-2.7,0
�͐쐅�ʏ��,����@�{���V,2024/4/3 9:30,-2.7,0
�͐쐅�ʏ��,����@�{���V,2024/4/3 9:40,-2.7,0
�͐쐅�ʏ��,����@�{���V,2024/4/3 9:50,-2.7,0
�͐쐅�ʏ��,����@�{���V,2024/4/3 10:00,-2.7,0
�͐쐅�ʏ��,����@�{���V,2024/4/3 10:10,-2.7,0
�͐쐅�ʏ��,����@�{���V,2024/4/3 10:20,-2.7,0
�͐쐅�ʏ��,����@�{���V,2024/4/3 10:30,-2.7,0
�͐쐅�ʏ��,����@�{���V,2024/4/3 10:40,-2.7,0
�͐쐅�ʏ��,����@�{���V,2024/4/3 10:50,-2.7,0
�͐쐅�ʏ��,����@�{���V,2024/4/3 11:00,-2.7,0
�͐쐅�ʏ��,����@�{���V,2024/4/3 11:10,-2.7,0
�͐쐅�ʏ��,����@�{���V,2024/4/3 11:20,-2.7,0
�͐쐅�ʏ��,����@�{���V,2024/4/3 11:30,-2.7,0
�͐쐅�ʏ��,����@�{���V,2024/4/3 11:40,-2.7,0
�͐쐅�ʏ��,����@�{���V,2024/4/3 11:50,-2.7,0
�͐쐅�ʏ��,����@�{���V,2024/4/3 12:00,-2.7,0
�͐쐅�ʏ��,����@�{���V,2024/4/3 12:10,-2.7,0
�͐쐅�ʏ��,����@�{���V,2024/4/3 12:20,-2.7,0
�͐쐅�ʏ��,����@�{���V,2024/4/3 12:30,-2.7,0
�͐쐅�ʏ��,����@�{���V,2024/4/3 12:40,-2.7,0
�͐쐅�ʏ��,����@�{���V,2024/4/3 12:50,-2.7,0
�͐쐅�ʏ��,����@�{���V,2024/4/3 13:00,-2.7,0
�͐쐅�ʏ��,����@�{���V,2024/4/3 13:10,-2.7,0
�͐쐅�ʏ��,����@�{���V,2024/4/3 13:20,-2.7,0
�͐쐅�ʏ��,����@�{���V,2024/4/3 13:30,-2.7,0
�͐쐅�ʏ��,����@�{���V,2024/4/3 13:40,-2.7,0.5
�͐쐅�ʏ��,����@�{���V,2024/4/3 13:50,-2.69,0
�͐쐅�ʏ��,����@�{���V,2024/4/3 14:00,-2.69,0.5
�͐쐅�ʏ��,����@�{���V,2024/4/3 14:10,-2.69,0
�͐쐅�ʏ��,����@�{���V,2024/4/3 14:20,-2.68,0.5
�͐쐅�ʏ��,����@�{���V,2024/4/3 14:30,-2.67,0
�͐쐅�ʏ��,����@�{���V,2024/4/3 14:40,-2.67,0
�͐쐅�ʏ��,����@�{���V,2024/4/3 14:50,-2.67,0.5
�͐쐅�ʏ��,����@�{���V,2024/4/3 15:00,-2.66,0
�͐쐅�ʏ��,����@�{���V,2024/4/3 15:10,-2.65,0
�͐쐅�ʏ��,����@�{���V,2024/4/3 15:20,-2.64,0
�͐쐅�ʏ��,����@�{���V,2024/4/3 15:30,-2.64,0.5
�͐쐅�ʏ��,����@�{���V,2024/4/3 15:40,-2.63,0
�͐쐅�ʏ��,����@�{���V,2024/4/3 15:50,-2.63,0.5
�͐쐅�ʏ��,����@�{���V,2024/4/3 16:00,-2.63,0
�͐쐅�ʏ��,����@�{���V,2024/4/3 16:10,-2.62,0.5
�͐쐅�ʏ��,����@�{���V,2024/4/3 16:20,-2.62,0.5
�͐쐅�ʏ��,����@�{���V,2024/4/3 16:30,-2.61,0.5
�͐쐅�ʏ��,����@�{���V,2024/4/3 16:40,-2.59,0.5
�͐쐅�ʏ��,����@�{���V,2024/4/3 16:50,-2.57,0.5
�͐쐅�ʏ��,����@�{���V,2024/4/3 17:00,-2.54,1
�͐쐅�ʏ��,����@�{���V,2024/4/3 17:10,-2.51,1
�͐쐅�ʏ��,����@�{���V,2024/4/3 17:20,-2.47,1
�͐쐅�ʏ��,����@�{���V,2024/4/3 17:30,-2.42,1
�͐쐅�ʏ��,����@�{���V,2024/4/3 17:40,-2.38,1
�͐쐅�ʏ��,����@�{���V,2024/4/3 17:50,-2.33,1
�͐쐅�ʏ��,����@�{���V,2024/4/3 18:00,-2.29,1
�͐쐅�ʏ��,����@�{���V,2024/4/3 18:10,-2.26,1
�͐쐅�ʏ��,����@�{���V,2024/4/3 18:20,-2.25,1
�͐쐅�ʏ��,����@�{���V,2024/4/3 18:30,-2.24,0.5
�͐쐅�ʏ��,����@�{���V,2024/4/3 18:40,-2.25,0.5
�͐쐅�ʏ��,����@�{���V,2024/4/3 18:50,-2.26,0.5
�͐쐅�ʏ��,����@�{���V,2024/4/3 19:00,-2.27,0.5
�͐쐅�ʏ��,����@�{���V,2024/4/3 19:10,-2.29,1
�͐쐅�ʏ��,����@�{���V,2024/4/3 19:20,-2.3,0.5
�͐쐅�ʏ��,����@�{���V,2024/4/3 19:30,-2.3,1
�͐쐅�ʏ��,����@�{���V,2024/4/3 19:40,-2.3,0.5
�͐쐅�ʏ��,����@�{���V,2024/4/3 19:50,-2.3,1.5
�͐쐅�ʏ��,����@�{���V,2024/4/3 20:00,-2.28,0.5
�͐쐅�ʏ��,����@�{���V,2024/4/3 20:10,-2.27,0.5
�͐쐅�ʏ��,����@�{���V,2024/4/3 20:20,-2.27,1
�͐쐅�ʏ��,����@�{���V,2024/4/3 20:30,-2.27,0.5
�͐쐅�ʏ��,����@�{���V,2024/4/3 20:40,-2.27,0.5
�͐쐅�ʏ��,����@�{���V,2024/4/3 20:50,-2.28,0.5
�͐쐅�ʏ��,����@�{���V,2024/4/3 21:00,-2.29,0.5
�͐쐅�ʏ��,����@�{���V,2024/4/3 21:10,-2.31,0.5
�͐쐅�ʏ��,����@�{���V,2024/4/3 21:20,-2.33,0.5
�͐쐅�ʏ��,����@�{���V,2024/4/3 21:30,-2.34,0.5
�͐쐅�ʏ��,����@�{���V,2024/4/3 21:40,-2.36,0
�͐쐅�ʏ��,����@�{���V,2024/4/3 21:50,-2.37,0.5
�͐쐅�ʏ��,����@�{���V,2024/4/3 22:00,-2.39,0.5
�͐쐅�ʏ��,����@�{���V,2024/4/3 22:10,-2.4,0.5
�͐쐅�ʏ��,����@�{���V,2024/4/3 22:20,-2.4,0.5
�͐쐅�ʏ��,����@�{���V,2024/4/3 22:30,-2.41,0.5
�͐쐅�ʏ��,����@�{���V,2024/4/3 22:40,-2.41,0.5
�͐쐅�ʏ��,����@�{���V,2024/4/3 22:50,-2.41,0.5
�͐쐅�ʏ��,����@�{���V,2024/4/3 23:00,-2.41,0.5
�͐쐅�ʏ��,����@�{���V,2024/4/3 23:10,-2.41,0.5
�͐쐅�ʏ��,����@�{���V,2024/4/3 23:20,-2.42,0
�͐쐅�ʏ��,����@�{���V,2024/4/3 23:30,-2.42,0.5
�͐쐅�ʏ��,����@�{���V,2024/4/3 23:40,-2.43,0.5
�͐쐅�ʏ��,����@�{���V,2024/4/3 23:50,-2.43,0
�͐쐅�ʏ��,����@�{���V,2024/4/4 0:00,-2.45,0.5
�͐쐅�ʏ��,����@�{���V,2024/4/4 0:10,-2.45,0.5
�͐쐅�ʏ��,����@�{���V,2024/4/4 0:20,-2.46,0
�͐쐅�ʏ��,����@�{���V,2024/4/4 0:30,-2.47,0.5
�͐쐅�ʏ��,����@�{���V,2024/4/4 0:40,-2.48,0
�͐쐅�ʏ��,����@�{���V,2024/4/4 0:50,-2.49,0.5
�͐쐅�ʏ��,����@�{���V,2024/4/4 1:00,-2.49,0.5
�͐쐅�ʏ��,����@�{���V,2024/4/4 1:10,-2.5,0.5
�͐쐅�ʏ��,����@�{���V,2024/4/4 1:20,-2.49,0.5
�͐쐅�ʏ��,����@�{���V,2024/4/4 1:30,-2.49,0.5
�͐쐅�ʏ��,����@�{���V,2024/4/4 1:40,-2.48,0.5
�͐쐅�ʏ��,����@�{���V,2024/4/4 1:50,-2.48,0
�͐쐅�ʏ��,����@�{���V,2024/4/4 2:00,-2.47,0
�͐쐅�ʏ��,����@�{���V,2024/4/4 2:10,-2.47,0.5
�͐쐅�ʏ��,����@�{���V,2024/4/4 2:20,-2.47,0
�͐쐅�ʏ��,����@�{���V,2024/4/4 2:30,-2.47,0.5
�͐쐅�ʏ��,����@�{���V,2024/4/4 2:40,-2.47,0.5
�͐쐅�ʏ��,����@�{���V,2024/4/4 2:50,-2.47,0.5
�͐쐅�ʏ��,����@�{���V,2024/4/4 3:00,-2.46,0.5
�͐쐅�ʏ��,����@�{���V,2024/4/4 3:10,-2.46,0.5
�͐쐅�ʏ��,����@�{���V,2024/4/4 3:20,-2.46,0
�͐쐅�ʏ��,����@�{���V,2024/4/4 3:30,-2.46,0.5
�͐쐅�ʏ��,����@�{���V,2024/4/4 3:40,-2.46,0.5
�͐쐅�ʏ��,����@�{���V,2024/4/4 3:50,-2.46,0.5
�͐쐅�ʏ��,����@�{���V,2024/4/4 4:00,-2.46,0.5
�͐쐅�ʏ��,����@�{���V,2024/4/4 4:10,-2.46,0
�͐쐅�ʏ��,����@�{���V,2024/4/4 4:20,-2.46,0.5
�͐쐅�ʏ��,����@�{���V,2024/4/4 4:30,-2.46,0
�͐쐅�ʏ��,����@�{���V,2024/4/4 4:40,-2.47,0
�͐쐅�ʏ��,����@�{���V,2024/4/4 4:50,-2.48,0
�͐쐅�ʏ��,����@�{���V,2024/4/4 5:00,-2.49,0
�͐쐅�ʏ��,����@�{���V,2024/4/4 5:10,-2.5,0
�͐쐅�ʏ��,����@�{���V,2024/4/4 5:20,-2.51,0.5
�͐쐅�ʏ��,����@�{���V,2024/4/4 5:30,-2.52,0
�͐쐅�ʏ��,����@�{���V,2024/4/4 5:40,-2.54,0
�͐쐅�ʏ��,����@�{���V,2024/4/4 5:50,-2.55,0
�͐쐅�ʏ��,����@�{���V,2024/4/4 6:00,-2.56,0.5
�͐쐅�ʏ��,����@�{���V,2024/4/4 6:10,-2.56,0
�͐쐅�ʏ��,����@�{���V,2024/4/4 6:20,-2.57,0
�͐쐅�ʏ��,����@�{���V,2024/4/4 6:30,-2.57,0.5
�͐쐅�ʏ��,����@�{���V,2024/4/4 6:40,-2.57,0
�͐쐅�ʏ��,����@�{���V,2024/4/4 6:50,-2.57,0
�͐쐅�ʏ��,����@�{���V,2024/4/4 7:00,-2.57,0
�͐쐅�ʏ��,����@�{���V,2024/4/4 7:10,-2.57,0
�͐쐅�ʏ��,����@�{���V,2024/4/4 7:20,-2.57,0.5
�͐쐅�ʏ��,����@�{���V,2024/4/4 7:30,-2.57,0
�͐쐅�ʏ��,����@�{���V,2024/4/4 7:40,-2.57,0
�͐쐅�ʏ��,����@�{���V,2024/4/4 7:50,-2.58,0
�͐쐅�ʏ��,����@�{���V,2024/4/4 8:00,-2.59,0
�͐쐅�ʏ��,����@�{���V,2024/4/4 8:10,-2.59,0
�͐쐅�ʏ��,����@�{���V,2024/4/4 8:20,-2.6,0
�͐쐅�ʏ��,����@�{���V,2024/4/4 8:30,-2.61,0
�͐쐅�ʏ��,����@�{���V,2024/4/4 8:40,-2.61,0
�͐쐅�ʏ��,����@�{���V,2024/4/4 8:50,-2.62,0
�͐쐅�ʏ��,����@�{���V,2024/4/4 9:00,-2.63,0
�͐쐅�ʏ��,����@�{���V,2024/4/4 9:10,-2.63,0
�͐쐅�ʏ��,����@�{���V,2024/4/4 9:20,-2.64,0
�͐쐅�ʏ��,����@�{���V,2024/4/4 9:30,-2.64,0
�͐쐅�ʏ��,����@�{���V,2024/4/4 9:40,-2.64,0
�͐쐅�ʏ��,����@�{���V,2024/4/4 9:50,-2.64,0
�͐쐅�ʏ��,����@�{���V,2024/4/4 10:00,-2.64,0
�͐쐅�ʏ��,����@�{���V,2024/4/4 10:10,-2.65,0
�͐쐅�ʏ��,����@�{���V,2024/4/4 10:20,-2.65,0
�͐쐅�ʏ��,����@�{���V,2024/4/4 10:30,-2.65,0
�͐쐅�ʏ��,����@�{���V,2024/4/4 10:40,-2.65,0
�͐쐅�ʏ��,����@�{���V,2024/4/4 10:50,-2.65,0
�͐쐅�ʏ��,����@�{���V,2024/4/4 11:00,-2.65,0
�͐쐅�ʏ��,����@�{���V,2024/4/4 11:10,-2.65,0
�͐쐅�ʏ��,����@�{���V,2024/4/4 11:20,-2.65,0
�͐쐅�ʏ��,����@�{���V,2024/4/4 11:30,-2.65,0
�͐쐅�ʏ��,����@�{���V,2024/4/4 11:40,-2.65,0
�͐쐅�ʏ��,����@�{���V,2024/4/4 11:50,-2.65,0
�͐쐅�ʏ��,����@�{���V,2024/4/4 12:00,-2.65,0
�͐쐅�ʏ��,����@�{���V,2024/4/4 12:10,-2.65,0
�͐쐅�ʏ��,����@�{���V,2024/4/4 12:20,-2.65,0
�͐쐅�ʏ��,����@�{���V,2024/4/4 12:30,-2.65,0
�͐쐅�ʏ��,����@�{���V,2024/4/4 12:40,-2.65,0
�͐쐅�ʏ��,����@�{���V,2024/4/4 12:50,-2.66,0
�͐쐅�ʏ��,����@�{���V,2024/4/4 13:00,-2.65,0
�͐쐅�ʏ��,����@�{���V,2024/4/4 13:10,-2.66,0
�͐쐅�ʏ��,����@�{���V,2024/4/4 13:20,-2.66,0
�͐쐅�ʏ��,����@�{���V,2024/4/4 13:30,-2.66,0
�͐쐅�ʏ��,����@�{���V,2024/4/4 13:40,-2.66,0
�͐쐅�ʏ��,����@�{���V,2024/4/4 13:50,-2.66,0
�͐쐅�ʏ��,����@�{���V,2024/4/4 14:00,-2.66,0
�͐쐅�ʏ��,����@�{���V,2024/4/4 14:10,-2.66,0
�͐쐅�ʏ��,����@�{���V,2024/4/4 14:20,-2.66,0
�͐쐅�ʏ��,����@�{���V,2024/4/4 14:30,-2.66,0
�͐쐅�ʏ��,����@�{���V,2024/4/4 14:40,-2.66,0
�͐쐅�ʏ��,����@�{���V,2024/4/4 14:50,-2.66,0
�͐쐅�ʏ��,����@�{���V,2024/4/4 15:00,-2.66,0
�͐쐅�ʏ��,����@�{���V,2024/4/4 15:10,-2.66,0
�͐쐅�ʏ��,����@�{���V,2024/4/4 15:20,-2.66,0
�͐쐅�ʏ��,����@�{���V,2024/4/4 15:30,-2.66,0
�͐쐅�ʏ��,����@�{���V,2024/4/4 15:40,-2.66,0
�͐쐅�ʏ��,����@�{���V,2024/4/4 15:50,-2.66,0
�͐쐅�ʏ��,����@�{���V,2024/4/4 16:00,-2.66,0
�͐쐅�ʏ��,����@�{���V,2024/4/4 16:10,-2.66,0
�͐쐅�ʏ��,����@�{���V,2024/4/4 16:20,-2.66,0
�͐쐅�ʏ��,����@�{���V,2024/4/4 16:30,-2.66,0
�͐쐅�ʏ��,����@�{���V,2024/4/4 16:40,-2.66,0
�͐쐅�ʏ��,����@�{���V,2024/4/4 16:50,-2.66,0
�͐쐅�ʏ��,����@�{���V,2024/4/4 17:00,-2.66,0
�͐쐅�ʏ��,����@�{���V,2024/4/4 17:10,-2.66,0
�͐쐅�ʏ��,����@�{���V,2024/4/4 17:20,-2.66,0
�͐쐅�ʏ��,����@�{���V,2024/4/4 17:30,-2.66,0
�͐쐅�ʏ��,����@�{���V,2024/4/4 17:40,-2.66,0
�͐쐅�ʏ��,����@�{���V,2024/4/4 17:50,-2.66,0
�͐쐅�ʏ��,����@�{���V,2024/4/4 18:00,-2.66,0
�͐쐅�ʏ��,����@�{���V,2024/4/4 18:10,-2.66,0
�͐쐅�ʏ��,����@�{���V,2024/4/4 18:20,-2.66,0
�͐쐅�ʏ��,����@�{���V,2024/4/4 18:30,-2.66,0
�͐쐅�ʏ��,����@�{���V,2024/4/4 18:40,-2.66,0
�͐쐅�ʏ��,����@�{���V,2024/4/4 18:50,-2.66,0
�͐쐅�ʏ��,����@�{���V,2024/4/4 19:00,-2.67,0
�͐쐅�ʏ��,����@�{���V,2024/4/4 19:10,-2.67,0
�͐쐅�ʏ��,����@�{���V,2024/4/4 19:20,-2.67,0
�͐쐅�ʏ��,����@�{���V,2024/4/4 19:30,-2.67,0
�͐쐅�ʏ��,����@�{���V,2024/4/4 19:40,-2.67,0
�͐쐅�ʏ��,����@�{���V,2024/4/4 19:50,-2.67,0